This is the latest recevied weather packets stored in our database for station/object SQ7IQO. If no packets are shown the sender has not sent any weather packets the latest 10 day(s).
| Time | Temp. | Humidity | Pressure | Rain* | Wind** | Luminosity | Snow |
|---|---|---|---|---|---|---|---|
| 1788001301 | 22.22° C | 72% | 1015.2 hPa | 0 mm | 0.89 m/s, ° | - | - |
| 1788001241 | 22.78° C | 71% | 1002.9 hPa | 0 mm | 1.34 m/s, ° | - | - |
| 1788001181 | 22.78° C | 69% | 1015.6 hPa | 0 mm | 0 m/s | - | - |
| 1788001121 | 23.33° C | 70% | 1015.2 hPa | 0 mm | 0.89 m/s, ° | - | - |
| 1788001061 | 22.78° C | 72% | 1015 hPa | 0 mm | 0.45 m/s, ° | - | - |
| 1788001001 | 22.22° C | 72% | 1015.2 hPa | 0 mm | 0 m/s | - | - |
| 1788000941 | 22.22° C | 74% | 1015.2 hPa | 0 mm | 0.89 m/s, ° | - | - |
| 1788000882 | 21.67° C | 74% | 1015.2 hPa | 0 mm | 0.89 m/s, ° | - | - |
| 1788000821 | 22.22° C | 73% | 1015.2 hPa | 0 mm | 1.79 m/s, ° | - | - |
| 1788000761 | 22.22° C | 72% | 1015.2 hPa | 0 mm | 0.89 m/s, ° | - | - |
| 1788000701 | 22.78° C | 70% | - | 0 mm | 1.79 m/s, ° | - | - |
| 1788000641 | 22.78° C | 70% | 1015.3 hPa | 0 mm | 1.34 m/s, ° | - | - |
| 1788000582 | 22.22° C | 71% | 1015.2 hPa | 0 mm | 0.45 m/s, ° | - | - |
| 1788000521 | 22.22° C | 73% | 1015.2 hPa | 0 mm | 0.89 m/s, ° | - | - |
| 1788000461 | 21.67° C | 73% | 1015.3 hPa | 0 mm | 0.45 m/s, ° | - | - |
| 1788000401 | 22.22° C | 73% | 1015.3 hPa | 0 mm | 0.89 m/s, ° | - | - |
| 1788000341 | 22.22° C | 73% | 1015.3 hPa | 0 mm | 0.89 m/s, ° | - | - |
| 1788000281 | 22.22° C | 72% | 1015.2 hPa | 0 mm | 1.34 m/s, ° | - | - |
| 1788000221 | 22.22° C | 72% | 1014.9 hPa | 0 mm | 0.89 m/s, ° | - | - |
| 1788000161 | 22.22° C | 74% | 1015.2 hPa | 0 mm | 0.45 m/s, ° | - | - |
| 1788000101 | 21.67° C | 74% | 1015.2 hPa | 0 mm | 0.45 m/s, ° | - | - |
| 1788000041 | 21.67° C | 73% | 1015.3 hPa | 0 mm | 0.89 m/s, ° | - | - |
| 1787999981 | 21.67° C | 72% | 1015.2 hPa | 0 mm | 1.34 m/s, ° | - | - |
| 1787999921 | 21.67° C | 73% | 1015.2 hPa | 0 mm | 1.34 m/s, ° | - | - |
| 1787999861 | 21.67° C | 74% | 1015.3 hPa | 0 mm | 1.34 m/s, ° | - | - |
* Rain latest hour (hover to see other rain measurements)
** Current wind speed in m/s (hover to see current wind gust speed)